Location: Pcim
(49.7500°N, 19.9670°E)
Time: 21:02:28
(UTC+02:00)

ITUPSAT 1 - Visible Passes

Search period start: 22 April 2024 00:00
Search period end: 02 May 2024 00:00
Orbit: 695 x 707 km, 98.5° (Epoch: 21 April)

Date Brightness Start Highest point End Pass type
(mag) Time Alt. Az. Time Alt. Az. Time Alt. Az.
22 Apr ? 00:01:07 10° N 00:05:05 27° WNW 00:06:27 23° W visible
22 Apr ? 21:28:59 10° NE 21:31:37 15° E 21:31:37 15° E visible
22 Apr ? 23:05:13 10° NNE 23:09:57 78° WNW 23:10:29 68° SW visible
23 Apr ? 00:44:38 10° NNW 00:46:53 13° NW 00:49:07 10° W visible
23 Apr ? 22:10:05 10° NNE 22:14:24 34° E 22:14:31 34° E visible
23 Apr ? 23:47:48 10° N 23:52:04 34° WNW 23:53:23 29° W visible
24 Apr ? 21:16:58 10° ENE 21:18:22 11° E 21:18:33 11° E visible
24 Apr ? 22:52:04 10° NNE 22:56:50 81° ESE 22:57:24 68° S visible
25 Apr ? 00:30:58 10° NNW 00:33:56 17° NW 00:36:16 12° W visible
25 Apr ? 21:57:10 10° NE 22:01:09 26° E 22:01:26 26° E visible
25 Apr ? 23:34:31 10° N 23:39:01 44° WNW 23:40:17 36° WSW visible
26 Apr ? 22:38:58 10° NNE 22:43:40 61° ESE 22:44:17 56° SE visible
27 Apr ? 00:17:26 10° N 00:20:56 21° WNW 00:23:09 15° W visible
27 Apr ? 21:44:21 10° NE 21:47:51 20° E 21:48:18 20° E visible
27 Apr ? 23:21:16 10° N 23:25:55 57° WNW 23:27:09 43° WSW visible
28 Apr ? 01:02:07 10° NW 01:02:37 10° NW 01:03:08 10° WNW visible
28 Apr ? 22:25:52 10° NNE 22:30:26 46° E 22:31:09 43° SE visible
29 Apr ? 00:03:59 10° N 00:07:54 26° WNW 00:10:00 19° W visible
29 Apr ? 21:31:42 10° NE 21:34:30 16° E 21:35:09 15° E visible
29 Apr ? 23:08:01 10° NNE 23:12:45 75° WNW 23:14:00 49° SW visible
30 Apr ? 00:47:31 10° NNW 00:49:39 13° NW 00:51:45 10° W visible
30 Apr ? 22:12:48 10° NNE 22:17:09 35° E 22:17:59 33° ESE visible
30 Apr ? 23:50:35 10° N 23:54:48 33° WNW 23:56:50 23° WSW visible
01 May ? 21:19:27 10° ENE 21:21:06 12° E 21:21:57 11° E visible
01 May ? 22:54:46 10° NNE 22:59:32 84° ESE 23:00:49 49° S visible
